FW9327 Weather Reports


time (UTC)temp
F
wind
direction
speed
knots
gust
knots
rain 1hr
in
rain 24hr
in
rain mn
in
humidity
%
barometer
mb
20260509014550 58 0 0.0 0.0 0.00 0.00 0.00 60 1005.1
20260509013055 59 0 0.0 1.7 0.00 0.00 0.00 59 1005.2
20260509011549 60 5 0.9 2.6 0.00 0.00 0.00 58 1005.2
20260509010049 61 0 0.0 1.7 0.00 0.00 0.00 55 1005.2
20260509004552 62 0 0.0 2.6 0.00 0.00 0.00 53 1005.2
20260509003100 63 0 0.0 4.3 0.00 0.00 0.00 52 1005.2
20260509001549 63 9 0.0 3.5 0.00 0.00 0.00 53 1005.3
20260509000054 63 0 0.0 3.5 0.00 0.00 0.00 54 1005.3
20260508234548 64 0 0.0 3.5 0.00 0.00 0.00 51 1005.3
20260508233048 65 0 0.9 5.2 0.00 0.00 0.00 49 1005.3
20260508231550 65 5 0.9 7.0 0.00 0.00 0.00 48 1005.3
20260508230057 65 9 2.6 7.0 0.00 0.00 0.00 48 1005.3
20260508224548 65 5 1.7 7.0 0.00 0.01 0.00 49 1005.5
20260508223054 66 5 1.7 5.2 0.00 0.01 0.00 49 1005.6
20260508221554 66 5 1.7 7.8 0.00 0.01 0.00 50 1005.5
20260508220050 67 5 1.7 7.8 0.00 0.01 0.00 49 1005.6
20260508214547 67 5 0.9 7.0 0.00 0.01 0.00 47 1005.6
20260508213049 67 5 0.9 4.3 0.00 0.01 0.00 47 1005.6
20260508211550 66 0 0.9 3.5 0.00 0.01 0.00 50 1005.7
20260508210050 67 360 0.0 4.3 0.00 0.01 0.00 45 1005.9
20260508204548 68 5 1.7 9.6 0.00 0.01 0.00 46 1005.7
20260508203052 68 5 2.6 8.7 0.00 0.01 0.00 48 1006.0
20260508201550 69 5 3.5 8.7 0.00 0.01 0.00 44 1006.4
20260508200052 69 9 3.5 7.8 0.00 0.01 0.00 43 1006.7
20260508194619 68 5 0.9 4.3 0.00 0.01 0.00 44 1006.8
20260508193106 69 9 2.6 7.8 0.00 0.01 0.00 45 1007.0
20260508191559 69 5 1.7 7.0 0.00 0.01 0.00 46 1007.0
20260508190051 67 0 0.0 7.0 0.00 0.01 0.00 46 1007.2
20260508184556 66 5 1.7 5.2 0.00 0.01 0.00 50 1007.4
20260508183051 65 5 2.6 5.2 0.00 0.01 0.00 47 1007.7
20260508181618 65 5 1.7 4.3 0.00 0.01 0.00 57 1007.9
20260508180058 65 5 2.6 9.6 0.00 0.01 0.00 57 1008.0
20260508174553 65 5 2.6 8.7 0.00 0.01 0.00 57 1008.3
20260508173055 64 360 5.2 9.6 0.00 0.01 0.00 61 1008.5
20260508171553 64 5 0.0 7.0 0.00 0.01 0.00 62 1008.8
20260508170051 64 5 0.9 3.5 0.00 0.01 0.00 63 1008.9
20260508164557 63 9 0.9 4.3 0.00 0.01 0.00 63 1009.2
20260508163054 63 5 2.6 4.3 0.00 0.01 0.00 61 1009.2
20260508161604 63 0 0.9 4.3 0.00 0.01 0.00 64 1009.5
20260508160054 62 5 2.6 6.1 0.00 0.01 0.00 64 1009.5
20260508154558 62 5 0.9 6.1 0.00 0.01 0.00 66 1009.6
20260508153056 61 5 1.7 7.8 0.00 0.01 0.00 68 1009.7
20260508151602 61 0 0.0 4.3 0.00 0.01 0.00 68 1009.8
20260508150052 60 0 0.9 4.3 0.00 0.01 0.00 71 1009.8
20260508144549 58 5 0.0 3.5 0.00 0.01 0.00 74 1010.0
20260508143051 57 5 0.9 4.3 0.00 0.01 0.00 75 1010.2
20260508141550 55 5 0.9 4.3 0.00 0.01 0.00 79 1010.2
20260508140051 53 360 0.9 4.3 0.00 0.01 0.00 86 1010.3
20260508134556 51 360 0.9 2.6 0.00 0.01 0.00 90 1010.2
20260508133105 49 360 0.9 3.5 0.00 0.01 0.00 93 1010.2
20260508131555 48 0 1.7 2.6 0.00 0.01 0.00 94 1010.3
20260508130053 46 0 0.0 0.0 0.00 0.01 0.00 95 1010.1
20260508124555 46 5 0.0 1.7 0.00 0.01 0.00 94 1010.0
20260508123056 45 0 0.0 0.9 0.00 0.01 0.00 94 1010.4
20260508121555 44 0 0.0 0.9 0.00 0.01 0.00 94 1010.2
20260508120055 43 5 0.0 0.9 0.00 0.01 0.00 94 1010.1
20260508114554 43 0 0.0 0.0 0.00 0.01 0.00 94 1010.1
20260508113056 42 0 0.0 0.9 0.00 0.01 0.00 94 1010.1
20260508111554 41 0 0.0 0.0 0.00 0.01 0.00 94 1009.9
20260508110052 41 0 0.0 0.0 0.00 0.01 0.00 93 1009.8
20260508104551 41 0 0.0 0.0 0.00 0.01 0.00 93 1009.9
20260508103053 40 0 0.0 0.0 0.00 0.01 0.00 93 1010.0
20260508101552 39 0 0.0 0.9 0.00 0.01 0.00 93 1010.0
20260508100053 39 0 0.0 0.0 0.00 0.01 0.00 92 1010.0
20260508094603 39 5 0.0 0.9 0.00 0.01 0.00 92 1010.0
20260508093051 39 0 0.0 0.9 0.00 0.01 0.00 92 1010.2
20260508091600 39 0 0.0 0.0 0.00 0.01 0.00 91 1010.2
20260508090055 40 0 0.0 0.0 0.00 0.01 0.00 91 1010.2
20260508084554 41 0 0.0 0.0 0.00 0.01 0.00 91 1010.2
20260508083101 41 0 0.0 0.0 0.00 0.01 0.00 91 1010.3
20260508081608 41 0 0.0 0.0 0.00 0.01 0.00 90 1010.2
20260508080053 42 0 0.0 0.9 0.00 0.01 0.00 90 1010.3
20260508074552 42 0 0.0 0.9 0.00 0.01 0.00 90 1010.3
20260508073052 42 0 0.0 1.7 0.00 0.01 0.00 90 1010.4
20260508071550 42 0 0.0 0.9 0.00 0.01 0.00 89 1010.6
20260508070101 43 0 0.0 1.7 0.00 0.01 0.00 90 1010.6
20260508064549 43 0 0.0 0.0 0.00 0.01 0.00 88 1010.7
20260508063055 43 0 0.0 0.0 0.00 0.01 0.00 87 1010.6
20260508061551 44 0 0.0 0.9 0.00 0.01 0.00 88 1010.6
20260508060056 44 0 0.0 0.0 0.00 0.01 0.00 87 1010.8
20260508054554 44 0 0.0 0.0 0.00 0.01 0.00 84 1010.7
20260508053058 45 0 0.0 0.0 0.00 0.01 0.00 82 1010.6
20260508051554 47 0 0.0 1.7 0.00 0.01 0.00 82 1010.5
20260508050057 47 0 0.0 2.6 0.00 0.01 0.00 81 1010.6
20260508044605 48 5 0.9 2.6 0.00 0.01 0.01 80 1010.5
20260508043107 48 5 0.9 2.6 0.00 0.01 0.01 79 1010.4
20260508041554 49 5 0.9 2.6 0.00 0.01 0.01 77 1010.3
20260508034557 48 5 0.9 4.3 0.00 0.01 0.01 78 1010.2
20260508033050 47 360 0.9 3.5 0.00 0.01 0.01 81 1010.1
20260508031554 46 0 0.0 0.0 0.00 0.01 0.01 82 1010.2
20260508030059 45 0 0.0 0.0 0.00 0.01 0.01 83 1010.0
20260508024553 45 0 0.0 0.0 0.00 0.01 0.01 82 1009.8
20260508023051 46 0 0.0 0.0 0.00 0.01 0.01 82 1009.8
20260508021553 46 0 0.0 0.0 0.00 0.01 0.01 81 1009.7
20260508020053 47 0 0.0 0.0 0.00 0.01 0.01 81 1009.5